Stündliche Wetter Jundiá

Heute, 5 März, Freitag

Zeit Temperatur Niederschläge Wind Luftdruck Luftfeuchtigkeit
00:00 +25°C° 0.2 mm 1 m/S 750 mmHg 93%
01:00 +25°C° 0.2 mm 1 m/S 749 mmHg 94%
02:00 +25°C° 0.2 mm 1 m/S 749 mmHg 94%
03:00 +25°C° 0.2 mm 1 m/S 749 mmHg 95%
04:00 +25°C° 0.2 mm 1 m/S 748 mmHg 95%
05:00 +25°C° 0.1 mm 1 m/S 749 mmHg 95%
06:00 +25°C° 0.1 mm 1 m/S 749 mmHg 94%
07:00 +25°C° 0.1 mm 1 m/S 749 mmHg 93%
08:00 +27°C° 0.1 mm 2 m/S 749 mmHg 86%
09:00 +28°C° 0.1 mm 2 m/S 750 mmHg 79%
10:00 +30°C° 0.1 mm 3 m/S 750 mmHg 71%
11:00 +31°C° 0.1 mm 3 m/S 750 mmHg 67%
12:00 +32°C° 0.1 mm 4 m/S 750 mmHg 62%
13:00 +33°C° 0.1 mm 4 m/S 749 mmHg 58%
14:00 +33°C° 0 mm 4 m/S 749 mmHg 60%
15:00 +32°C° 0 mm 4 m/S 748 mmHg 61%
16:00 +32°C° 0 mm 4 m/S 748 mmHg 62%
17:00 +30°C° 0 mm 4 m/S 748 mmHg 69%
18:00 +28°C° 0 mm 3 m/S 748 mmHg 75%
19:00 +27°C° 0 mm 2 m/S 748 mmHg 82%
20:00 +26°C° 0 mm 2 m/S 749 mmHg 84%
21:00 +26°C° 0 mm 1 m/S 749 mmHg 87%
22:00 +25°C° 0 mm 1 m/S 750 mmHg 90%
23:00 +25°C° 0 mm 1 m/S 749 mmHg 90%

Morgen, 6 März, Samstag

Zeit Temperatur Niederschläge Wind Luftdruck Luftfeuchtigkeit
00:00 +23°C° 0 mm 0 m/S 749 mmHg 90%
01:00 +23°C° 0 mm 0 m/S 749 mmHg 89%
02:00 +23°C° 0 mm 0 m/S 748 mmHg 90%
03:00 +23°C° 0 mm 0 m/S 748 mmHg 91%
04:00 +22°C° 0 mm 0 m/S 748 mmHg 92%
05:00 +22°C° 0 mm 0 m/S 748 mmHg 91%
06:00 +23°C° 0 mm 0 m/S 749 mmHg 91%
07:00 +23°C° 0 mm 0 m/S 749 mmHg 90%
08:00 +27°C° 0 mm 1 m/S 750 mmHg 81%
09:00 +29°C° 0 mm 2 m/S 750 mmHg 71%
10:00 +31°C° 0 mm 2 m/S 751 mmHg 61%
11:00 +31°C° 0 mm 3 m/S 750 mmHg 59%
12:00 +33°C° 0 mm 3 m/S 750 mmHg 57%
13:00 +34°C° 0 mm 4 m/S 750 mmHg 54%
14:00 +34°C° 0 mm 4 m/S 749 mmHg 55%
15:00 +34°C° 0 mm 4 m/S 749 mmHg 55%
16:00 +33°C° 0 mm 4 m/S 748 mmHg 55%
17:00 +32°C° 0 mm 4 m/S 748 mmHg 64%
18:00 +29°C° 0 mm 3 m/S 749 mmHg 72%
19:00 +28°C° 0 mm 3 m/S 749 mmHg 81%
20:00 +27°C° 0 mm 2 m/S 749 mmHg 84%
21:00 +27°C° 0 mm 2 m/S 750 mmHg 86%
22:00 +26°C° 0 mm 1 m/S 750 mmHg 89%
23:00 +26°C° 0 mm 1 m/S 750 mmHg 90%

übermorgen, 7 März, Sonntag

Zeit Temperatur Niederschläge Wind Luftdruck Luftfeuchtigkeit
00:00 +26°C° 0 mm 1 m/S 750 mmHg 91%
01:00 +25°C° 0 mm 1 m/S 749 mmHg 92%
02:00 +25°C° 0 mm 1 m/S 749 mmHg 93%
03:00 +25°C° 0 mm 1 m/S 749 mmHg 94%
04:00 +23°C° 0 mm 0 m/S 748 mmHg 95%
05:00 +23°C° 0.1 mm 0 m/S 749 mmHg 94%
06:00 +23°C° 0.1 mm 0 m/S 749 mmHg 93%
07:00 +24°C° 0.1 mm 0 m/S 750 mmHg 92%
08:00 +28°C° 0 mm 1 m/S 750 mmHg 81%
09:00 +30°C° 0 mm 2 m/S 750 mmHg 70%
10:00 +32°C° 0 mm 2 m/S 751 mmHg 59%
11:00 +34°C° 0 mm 3 m/S 750 mmHg 56%
12:00 +35°C° 0 mm 3 m/S 750 mmHg 53%
13:00 +36°C° 0 mm 4 m/S 750 mmHg 50%
14:00 +35°C° 0.3 mm 4 m/S 749 mmHg 53%
15:00 +35°C° 0.3 mm 4 m/S 748 mmHg 55%
16:00 +34°C° 0.3 mm 4 m/S 748 mmHg 58%
17:00 +32°C° 0 mm 4 m/S 748 mmHg 64%
18:00 +30°C° 0 mm 4 m/S 748 mmHg 70%
19:00 +28°C° 0 mm 3 m/S 748 mmHg 77%
20:00 +28°C° 0 mm 3 m/S 749 mmHg 81%
21:00 +27°C° 0 mm 2 m/S 749 mmHg 86%
22:00 +26°C° 0 mm 2 m/S 749 mmHg 90%
23:00 +26°C° 0 mm 2 m/S 749 mmHg 92%

8 März, Montag

Zeit Temperatur Niederschläge Wind Luftdruck Luftfeuchtigkeit
00:00 +26°C° 0 mm 1 m/S 749 mmHg 93%
01:00 +26°C° 0 mm 1 m/S 749 mmHg 95%
02:00 +25°C° 0 mm 1 m/S 749 mmHg 95%
03:00 +25°C° 0 mm 1 m/S 748 mmHg 95%
04:00 +25°C° 0 mm 1 m/S 748 mmHg 96%
05:00 +25°C° 0 mm 1 m/S 748 mmHg 95%
06:00 +25°C° 0 mm 1 m/S 749 mmHg 95%
07:00 +25°C° 0 mm 1 m/S 749 mmHg 94%
08:00 +27°C° 0 mm 2 m/S 750 mmHg 84%
09:00 +29°C° 0 mm 2 m/S 750 mmHg 73%
10:00 +31°C° 0 mm 3 m/S 750 mmHg 63%
11:00 +34°C° 0 mm 3 m/S 750 mmHg 58%
12:00 +35°C° 0 mm 4 m/S 750 mmHg 53%
13:00 +36°C° 0 mm 4 m/S 749 mmHg 47%
14:00 +35°C° 0 mm 4 m/S 749 mmHg 49%
15:00 +35°C° 0 mm 5 m/S 748 mmHg 51%
16:00 +35°C° 0 mm 5 m/S 748 mmHg 53%
17:00 +33°C° 0 mm 4 m/S 748 mmHg 60%
18:00 +30°C° 0 mm 4 m/S 748 mmHg 68%
19:00 +28°C° 0 mm 3 m/S 748 mmHg 76%
20:00 +27°C° 0 mm 3 m/S 748 mmHg 80%
21:00 +27°C° 0 mm 2 m/S 749 mmHg 84%
22:00 +26°C° 0 mm 2 m/S 749 mmHg 88%
23:00 +26°C° 0 mm 1 m/S 749 mmHg 90%

9 März, Dienstag

Zeit Temperatur Niederschläge Wind Luftdruck Luftfeuchtigkeit
00:00 +26°C° 0 mm 1 m/S 748 mmHg 91%
01:00 +25°C° 0 mm 1 m/S 748 mmHg 93%
02:00 +25°C° 0 mm 1 m/S 748 mmHg 94%
03:00 +25°C° 0 mm 1 m/S 748 mmHg 95%
04:00 +25°C° 0 mm 1 m/S 747 mmHg 96%
05:00 +25°C° 0 mm 1 m/S 748 mmHg 95%
06:00 +25°C° 0 mm 1 m/S 748 mmHg 94%
07:00 +25°C° 0 mm 1 m/S 748 mmHg 94%
08:00 +27°C° 0.1 mm 2 m/S 749 mmHg 83%
09:00 +30°C° 0.1 mm 2 m/S 749 mmHg 72%
10:00 +33°C° 0.1 mm 3 m/S 749 mmHg 61%
11:00 +34°C° 0 mm 3 m/S 749 mmHg 55%
12:00 +35°C° 0 mm 4 m/S 749 mmHg 49%
13:00 +36°C° 0 mm 4 m/S 748 mmHg 43%
14:00 +36°C° 0 mm 4 m/S 748 mmHg 45%
15:00 +35°C° 0 mm 5 m/S 747 mmHg 48%
16:00 +35°C° 0 mm 5 m/S 746 mmHg 51%
17:00 +33°C° 0 mm 5 m/S 747 mmHg 60%
18:00 +30°C° 0 mm 4 m/S 747 mmHg 69%
19:00 +28°C° 0 mm 4 m/S 747 mmHg 78%
20:00 +28°C° 0 mm 3 m/S 747 mmHg 81%
21:00 +27°C° 0 mm 3 m/S 747 mmHg 84%
22:00 +26°C° 0 mm 2 m/S 748 mmHg 87%
23:00 +26°C° 0 mm 2 m/S 748 mmHg 89%

10 März, Mittwoch

Zeit Temperatur Niederschläge Wind Luftdruck Luftfeuchtigkeit
00:00 +26°C° 0 mm 2 m/S 748 mmHg 91%
01:00 +25°C° 0 mm 2 m/S 747 mmHg 93%
02:00 +25°C° 0 mm 1 m/S 747 mmHg 94%
03:00 +25°C° 0 mm 1 m/S 747 mmHg 95%
04:00 +25°C° 0 mm 1 m/S 747 mmHg 96%
05:00 +25°C° 0 mm 1 m/S 748 mmHg 95%
06:00 +25°C° 0 mm 1 m/S 748 mmHg 93%
07:00 +25°C° 0 mm 1 m/S 748 mmHg 92%
08:00 +27°C° 0.1 mm 1 m/S 749 mmHg 84%
09:00 +29°C° 0.1 mm 2 m/S 749 mmHg 76%
10:00 +30°C° 0.1 mm 3 m/S 749 mmHg 68%
11:00 +33°C° 0 mm 3 m/S 749 mmHg 63%
12:00 +34°C° 0 mm 3 m/S 749 mmHg 57%
13:00 +35°C° 0 mm 4 m/S 748 mmHg 51%
14:00 +35°C° 0 mm 4 m/S 748 mmHg 51%
15:00 +35°C° 0 mm 5 m/S 747 mmHg 50%
16:00 +35°C° 0 mm 5 m/S 747 mmHg 50%
17:00 +33°C° 0 mm 5 m/S 747 mmHg 59%
18:00 +30°C° 0 mm 4 m/S 747 mmHg 68%
19:00 +28°C° 0 mm 3 m/S 747 mmHg 77%
20:00 +27°C° 0 mm 3 m/S 747 mmHg 81%
21:00 +26°C° 0 mm 2 m/S 748 mmHg 85%
22:00 +26°C° 0 mm 2 m/S 748 mmHg 89%
23:00 +25°C° 0 mm 2 m/S 748 mmHg 90%
Mehr zeigen

Wir brauchen deine Erlaubnis

Meteoprog und unser Service Anbieter werden persönliche Daten aufbewahren, so wie Cookies, Geräte Bezeichnung oder ähnliche Technologien von deinem Gerät und Prozess, so wie Persönliche Daten Inhalte und Werbungen, genauso wie social Media und den Verkehr zu analysieren.

  • Aufbewahrung und/oder Zugang zu deiner Geräte Informationen.

    Cookies, Geräte Bezeichnung oder andere Informationen, können aufbewahrt oder Zugang zu deinem Gerät erhalten, für den Grund, der oben angegeben wird.

  • Personalisierte Werbung und Inhalte, Messungen, Einblick in das Publikum und Produkt Entwicklung.

    Werbungen und Inhalte können personalisiert werden, basierend auf ein Profil. Mehr Daten können besser personalisierte Werbungen und Inhalte hinzufügen. Werbung und Inhalte können gezeigt und gemessen werden. Einblicke über das Publikum, welche die Werbung gesehen haben und den Inhalt, können abgeleitet werden. So wie Daten können genutzt werden, um es zu verbessern oder die Benutzer Erfahrung zu verbessern das System und die Software.

Wenn du “Ich stimme zu” klickst, erlaubst du uns, die Cookies zu benutzen die Geräte Bezeichnung, den Web oder ähnliche Technologien zu benutzen. Deine Settings, können in deinem Gerät bei deinem Browser geändert werden.

Für den bestimmten Zweck, berechtigten Interessen beruhen darauf, mehr als auf den Inhalt. Du kannst mehr darüber in unseren Privaten und Cookie Politik lesen.